FW4441 Weather Reports


time (UTC)temp
F
wind
direction
speed
knots
gust
knots
rain 1hr
in
rain 24hr
in
rain mn
in
humidity
%
barometer
mb
20260510151530 53 12 2.6 4.3 0.00 0.00 0.00 80 1014.2
20260510150028 51 85 0.9 3.5 0.00 0.00 0.00 80 1014.5
20260510144556 50 102 0.9 2.6 0.00 0.00 0.00 79 1014.1
20260510143106 50 166 1.7 3.5 0.00 0.00 0.00 77 1014.1
20260510141531 51 337 0.9 3.5 0.00 0.00 0.00 78 1013.9
20260510140030 49 37 0.0 2.6 0.00 0.00 0.00 79 1013.8
20260510134543 48 337 0.0 0.0 0.00 0.00 0.00 79 1014.1
20260510133102 47 337 0.0 1.7 0.00 0.00 0.00 80 1014.0
20260510130032 47 202 0.0 2.6 0.00 0.00 0.00 77 1013.9
20260510124530 48 138 0.0 3.5 0.00 0.00 0.00 77 1013.9
20260510123031 47 152 2.6 4.3 0.00 0.00 0.00 77 1014.1
20260510121607 48 237 0.0 2.6 0.00 0.00 0.00 76 1014.1
20260510120030 48 46 1.7 4.3 0.00 0.00 0.00 77 1013.9
20260510114530 46 34 2.6 3.5 0.00 0.00 0.00 76 1014.0
20260510113107 48 204 0.9 2.6 0.00 0.00 0.00 74 1013.9
20260510111605 49 152 0.0 1.7 0.00 0.00 0.00 73 1013.6
20260510110033 50 94 0.0 1.7 0.00 0.00 0.00 73 1013.5
20260510104531 50 67 0.9 1.7 0.00 0.00 0.00 73 1013.9
20260510103030 50 61 0.9 2.6 0.00 0.00 0.00 72 1014.0
20260510101529 49 325 0.0 1.7 0.00 0.00 0.00 71 1013.7
20260510100030 50 193 0.9 2.6 0.00 0.00 0.00 71 1013.7
20260510094531 51 126 0.0 1.7 0.00 0.00 0.00 69 1013.6
20260510093034 51 45 0.0 0.0 0.00 0.00 0.00 69 1013.6
20260510091529 51 51 1.7 3.5 0.00 0.00 0.00 68 1013.8
20260510090145 51 312 0.0 3.5 0.00 0.00 0.00 67 1013.8
20260510084530 52 7 1.7 3.5 0.00 0.00 0.00 66 1013.9
20260510083030 52 12 1.7 3.5 0.00 0.00 0.00 64 1014.0
20260510081607 53 67 0.9 2.6 0.00 0.00 0.00 65 1014.0
20260510080029 52 140 0.0 1.7 0.00 0.00 0.00 63 1014.1
20260510074531 54 136 0.0 1.7 0.00 0.00 0.00 60 1014.1
20260510073030 55 112 0.0 1.7 0.00 0.00 0.00 60 1014.1
20260510071531 54 138 0.9 3.5 0.00 0.00 0.00 62 1014.1
20260510064532 57 91 0.0 1.7 0.00 0.00 0.00 58 1014.0
20260510063036 58 88 0.9 2.6 0.00 0.00 0.00 58 1013.9
20260510061529 58 69 0.9 3.5 0.00 0.00 0.00 57 1013.9
20260510051530 61 202 0.0 1.7 0.00 0.00 0.00 52 1013.5
20260510050031 62 192 0.9 3.5 0.00 0.00 0.00 50 1013.4
20260510044529 63 185 0.9 3.5 0.00 0.00 0.00 49 1013.2
20260510041531 64 153 0.0 1.7 0.00 0.00 0.00 48 1013.0
20260510040030 66 155 1.7 3.5 0.00 0.00 0.00 49 1012.7
20260510033031 68 202 0.0 1.7 0.00 0.00 0.00 46 1012.5
20260510031529 69 182 0.0 1.7 0.00 0.00 0.00 44 1012.5
20260510030030 70 113 0.0 2.6 0.00 0.00 0.00 44 1012.5
20260510021530 72 117 0.9 3.5 0.00 0.00 0.00 39 1012.3
20260510020032 73 242 0.9 2.6 0.00 0.00 0.00 39 1012.4
20260510014532 74 201 0.9 2.6 0.00 0.00 0.00 38 1012.6
20260510011531 75 34 2.6 7.0 0.00 0.00 0.00 35 1012.7
20260510004530 78 38 3.5 7.0 0.00 0.00 0.00 33 1012.9
20260510003031 79 37 4.3 8.7 0.00 0.00 0.00 33 1012.9
20260510001531 77 46 3.5 9.6 0.00 0.00 0.00 33 1013.0
20260510000032 78 44 4.3 11.3 0.00 0.00 0.00 33 1013.1
20260509234530 80 31 5.2 9.6 0.00 0.00 0.00 33 1013.3
20260509233029 81 38 3.5 7.8 0.00 0.00 0.00 34 1013.6
20260509231532 81 25 5.2 8.7 0.00 0.00 0.00 34 1013.8
20260509230030 82 16 5.2 8.7 0.00 0.00 0.00 35 1014.1
20260509224532 81 17 3.5 9.6 0.00 0.00 0.00 36 1014.4
20260509223031 80 19 5.2 8.7 0.00 0.00 0.00 37 1014.6
20260509221646 79 20 6.1 10.4 0.00 0.00 0.00 38 1014.9
20260509220054 79 24 7.8 13.9 0.00 0.00 0.00 38 1015.0
20260509214532 78 27 7.8 12.2 0.00 0.00 0.00 40 1015.2
20260509213106 79 29 7.8 12.2 0.00 0.00 0.00 41 1015.4
20260509211530 79 9 6.1 10.4 0.00 0.00 0.00 41 1015.7
20260509210032 78 9 6.1 9.6 0.00 0.00 0.00 42 1015.8
20260509203031 77 18 7.0 11.3 0.00 0.00 0.00 44 1016.1
20260509200030 76 23 7.8 11.3 0.00 0.00 0.00 46 1016.7
20260509194529 75 4 5.2 10.4 0.00 0.00 0.00 48 1017.0
20260509193031 74 359 5.2 9.6 0.00 0.00 0.00 49 1017.2
20260509191607 73 354 5.2 11.3 0.00 0.00 0.00 50 1017.3
20260509190030 72 308 3.5 7.8 0.00 0.00 0.00 51 1017.5
20260509183031 71 297 2.6 6.1 0.00 0.00 0.00 52 1018.0
20260509181531 70 310 2.6 5.2 0.00 0.00 0.00 53 1018.1
20260509180029 69 260 1.7 5.2 0.00 0.00 0.00 53 1018.1
20260509174530 68 314 1.7 5.2 0.00 0.00 0.00 54 1018.2
20260509173030 66 294 1.7 4.3 0.00 0.00 0.00 56 1018.4
20260509170032 65 332 1.7 4.3 0.00 0.00 0.00 60 1018.9
20260509164532 63 312 0.9 2.6 0.00 0.00 0.00 61 1018.9
20260509163031 61 309 0.9 3.5 0.00 0.00 0.00 64 1019.1
20260509161531 60 329 1.7 4.3 0.00 0.00 0.00 66 1019.2
20260509154530 57 34 3.5 5.2 0.00 0.00 0.00 72 1019.5
20260509153031 55 342 1.7 5.2 0.00 0.00 0.00 75 1019.4